Hourly Weather Ruszki

Today, 13 April, Tuesday

Time Temperature Precipitation Wind Pressure Humidity
00:00 0°C° 0.1 mm 5 mps 757 mmHg 91%
01:00 0°C° 0.1 mm 5 mps 757 mmHg 91%
02:00 0°C° 0.1 mm 5 mps 757 mmHg 89%
03:00 0°C° 0.1 mm 5 mps 757 mmHg 87%
04:00 0°C° 0.1 mm 4 mps 758 mmHg 85%
05:00 0°C° 0.2 mm 4 mps 758 mmHg 84%
06:00 0°C° 0.2 mm 4 mps 758 mmHg 83%
07:00 +1°C° 0.2 mm 4 mps 758 mmHg 83%
08:00 +3°C° 0 mm 4 mps 758 mmHg 74%
09:00 +4°C° 0 mm 4 mps 758 mmHg 65%
10:00 +5°C° 0 mm 5 mps 758 mmHg 56%
11:00 +6°C° 0 mm 5 mps 758 mmHg 53%
12:00 +7°C° 0 mm 5 mps 758 mmHg 50%
13:00 +7°C° 0 mm 5 mps 758 mmHg 48%
14:00 +7°C° 0 mm 5 mps 758 mmHg 48%
15:00 +7°C° 0 mm 5 mps 757 mmHg 48%
16:00 +7°C° 0 mm 5 mps 757 mmHg 48%
17:00 +6°C° 0 mm 4 mps 757 mmHg 50%
18:00 +5°C° 0 mm 3 mps 757 mmHg 53%
19:00 +4°C° 0 mm 3 mps 757 mmHg 55%
20:00 +4°C° 0 mm 3 mps 757 mmHg 56%
21:00 +3°C° 0 mm 3 mps 757 mmHg 58%
22:00 +4°C° 0 mm 2 mps 757 mmHg 59%
23:00 +4°C° 0 mm 2 mps 757 mmHg 61%

Tomorrow, 14 April, Wednesday

Time Temperature Precipitation Wind Pressure Humidity
00:00 +4°C° 0 mm 2 mps 757 mmHg 64%
01:00 +3°C° 0 mm 2 mps 757 mmHg 66%
02:00 +2°C° 0 mm 3 mps 756 mmHg 67%
03:00 +2°C° 0 mm 3 mps 756 mmHg 69%
04:00 +2°C° 0 mm 3 mps 756 mmHg 70%
05:00 +1°C° 0 mm 4 mps 756 mmHg 69%
06:00 +1°C° 0 mm 4 mps 756 mmHg 68%
07:00 +1°C° 0 mm 4 mps 756 mmHg 67%
08:00 +3°C° 0 mm 4 mps 756 mmHg 65%
09:00 +4°C° 0 mm 4 mps 756 mmHg 62%
10:00 +4°C° 0 mm 4 mps 756 mmHg 60%
11:00 +5°C° 0 mm 4 mps 756 mmHg 57%
12:00 +5°C° 0 mm 4 mps 756 mmHg 54%
13:00 +6°C° 0 mm 4 mps 756 mmHg 52%
14:00 +5°C° 0 mm 4 mps 755 mmHg 55%
15:00 +5°C° 0 mm 4 mps 755 mmHg 59%
16:00 +5°C° 0 mm 4 mps 755 mmHg 63%
17:00 +4°C° 0.1 mm 4 mps 755 mmHg 66%
18:00 +4°C° 0.1 mm 4 mps 756 mmHg 70%
19:00 +3°C° 0.1 mm 4 mps 756 mmHg 73%
20:00 +3°C° 0 mm 4 mps 756 mmHg 76%
21:00 +1°C° 0 mm 5 mps 756 mmHg 80%
22:00 +1°C° 0 mm 5 mps 756 mmHg 83%
23:00 0°C° 0.2 mm 5 mps 755 mmHg 86%

Day after tomorrow, 15 April, Thursday

Time Temperature Precipitation Wind Pressure Humidity
00:00 -1°C° 0.2 mm 6 mps 755 mmHg 90%
01:00 -1°C° 0.2 mm 6 mps 755 mmHg 94%
02:00 -1°C° 0.4 mm 6 mps 755 mmHg 95%
03:00 -2°C° 0.4 mm 6 mps 755 mmHg 96%
04:00 -2°C° 0.4 mm 6 mps 754 mmHg 97%
05:00 -1°C° 0.5 mm 6 mps 754 mmHg 97%
06:00 -1°C° 0.5 mm 6 mps 754 mmHg 97%
07:00 -1°C° 0.5 mm 6 mps 754 mmHg 97%
08:00 -1°C° 0.6 mm 6 mps 754 mmHg 97%
09:00 -1°C° 0.6 mm 6 mps 754 mmHg 97%
10:00 -1°C° 0.6 mm 6 mps 754 mmHg 97%
11:00 0°C° 0.8 mm 5 mps 754 mmHg 97%
12:00 0°C° 0.8 mm 5 mps 754 mmHg 97%
13:00 0°C° 0.8 mm 5 mps 754 mmHg 97%
14:00 0°C° 0.8 mm 4 mps 754 mmHg 98%
15:00 0°C° 0.8 mm 4 mps 754 mmHg 98%
16:00 0°C° 0.8 mm 4 mps 754 mmHg 98%
17:00 +1°C° 0.7 mm 3 mps 754 mmHg 98%
18:00 +1°C° 0.7 mm 3 mps 754 mmHg 98%
19:00 +1°C° 0.7 mm 3 mps 754 mmHg 98%
20:00 +1°C° 0.4 mm 3 mps 754 mmHg 99%
21:00 +2°C° 0.4 mm 3 mps 753 mmHg 99%
22:00 +2°C° 0.4 mm 3 mps 753 mmHg 99%
23:00 +2°C° 0.1 mm 3 mps 753 mmHg 98%

16 April, Friday

Time Temperature Precipitation Wind Pressure Humidity
00:00 +2°C° 0.1 mm 3 mps 753 mmHg 98%
01:00 +2°C° 0.1 mm 3 mps 753 mmHg 98%
02:00 +2°C° 0.1 mm 3 mps 753 mmHg 98%
03:00 +2°C° 0.1 mm 3 mps 753 mmHg 98%
04:00 +2°C° 0.1 mm 3 mps 753 mmHg 98%
05:00 +2°C° 0.1 mm 3 mps 753 mmHg 98%
06:00 +2°C° 0.1 mm 3 mps 753 mmHg 98%
07:00 +2°C° 0.1 mm 3 mps 753 mmHg 98%
08:00 +2°C° 0 mm 3 mps 754 mmHg 98%
09:00 +2°C° 0 mm 3 mps 754 mmHg 98%
10:00 +3°C° 0 mm 3 mps 754 mmHg 97%
11:00 +3°C° 0 mm 3 mps 754 mmHg 97%
12:00 +3°C° 0 mm 3 mps 754 mmHg 96%
13:00 +3°C° 0 mm 3 mps 754 mmHg 95%
14:00 +3°C° 0.1 mm 3 mps 754 mmHg 95%
15:00 +3°C° 0.1 mm 3 mps 754 mmHg 96%
16:00 +3°C° 0.1 mm 3 mps 754 mmHg 96%
17:00 +3°C° 0 mm 3 mps 754 mmHg 97%
18:00 +3°C° 0 mm 3 mps 755 mmHg 98%
19:00 +3°C° 0 mm 3 mps 755 mmHg 98%
20:00 +3°C° 0.1 mm 3 mps 755 mmHg 98%
21:00 +3°C° 0.1 mm 3 mps 755 mmHg 98%
22:00 +3°C° 0.1 mm 3 mps 755 mmHg 98%
23:00 +4°C° 0.1 mm 3 mps 755 mmHg 98%

17 April, Saturday

Time Temperature Precipitation Wind Pressure Humidity
00:00 +4°C° 0.1 mm 3 mps 755 mmHg 98%
01:00 +4°C° 0.1 mm 3 mps 754 mmHg 98%
02:00 +5°C° 0.2 mm 3 mps 754 mmHg 98%
03:00 +5°C° 0.2 mm 3 mps 754 mmHg 98%
04:00 +5°C° 0.2 mm 3 mps 754 mmHg 98%
05:00 +7°C° 0.1 mm 3 mps 755 mmHg 98%
06:00 +7°C° 0.1 mm 3 mps 755 mmHg 97%
07:00 +7°C° 0.1 mm 3 mps 755 mmHg 97%
08:00 +7°C° 0.1 mm 4 mps 755 mmHg 92%
09:00 +8°C° 0.1 mm 4 mps 756 mmHg 88%
10:00 +10°C° 0.1 mm 4 mps 756 mmHg 83%
11:00 +12°C° 0.1 mm 5 mps 756 mmHg 74%
12:00 +13°C° 0.1 mm 5 mps 756 mmHg 66%
13:00 +14°C° 0.1 mm 5 mps 756 mmHg 57%
14:00 +14°C° 0.1 mm 5 mps 756 mmHg 60%
15:00 +14°C° 0.1 mm 5 mps 756 mmHg 62%
16:00 +13°C° 0.1 mm 5 mps 756 mmHg 64%
17:00 +12°C° 0.3 mm 4 mps 756 mmHg 72%
18:00 +10°C° 0.3 mm 4 mps 756 mmHg 80%
19:00 +9°C° 0.3 mm 3 mps 757 mmHg 89%
20:00 +9°C° 0.1 mm 3 mps 757 mmHg 91%
21:00 +8°C° 0.1 mm 3 mps 757 mmHg 93%
22:00 +8°C° 0.1 mm 3 mps 757 mmHg 95%
23:00 +8°C° 0.3 mm 3 mps 757 mmHg 95%

18 April, Sunday

Time Temperature Precipitation Wind Pressure Humidity
00:00 +8°C° 0.3 mm 3 mps 757 mmHg 94%
01:00 +8°C° 0.3 mm 3 mps 757 mmHg 94%
02:00 +8°C° 0.5 mm 2 mps 757 mmHg 94%
03:00 +8°C° 0.5 mm 2 mps 757 mmHg 95%
04:00 +8°C° 0.5 mm 2 mps 757 mmHg 95%
05:00 +9°C° 0.8 mm 1 mps 757 mmHg 95%
06:00 +9°C° 0.8 mm 1 mps 757 mmHg 96%
07:00 +9°C° 0.8 mm 1 mps 757 mmHg 96%
08:00 +9°C° 0.7 mm 1 mps 757 mmHg 95%
09:00 +8°C° 0.7 mm 2 mps 757 mmHg 93%
10:00 +8°C° 0.7 mm 2 mps 757 mmHg 92%
11:00 +8°C° 0.3 mm 2 mps 757 mmHg 91%
12:00 +9°C° 0.3 mm 2 mps 757 mmHg 90%
13:00 +10°C° 0.3 mm 1 mps 757 mmHg 90%
14:00 +10°C° 0.3 mm 1 mps 757 mmHg 90%
15:00 +10°C° 0.3 mm 1 mps 757 mmHg 91%
16:00 +10°C° 0.3 mm 1 mps 757 mmHg 92%
17:00 +10°C° 0.1 mm 1 mps 757 mmHg 93%
18:00 +8°C° 0.1 mm 2 mps 757 mmHg 94%
19:00 +8°C° 0.1 mm 2 mps 757 mmHg 95%
20:00 +8°C° 0.1 mm 2 mps 757 mmHg 94%
21:00 +8°C° 0.1 mm 3 mps 758 mmHg 94%
22:00 +8°C° 0.1 mm 3 mps 758 mmHg 93%
23:00 +7°C° 0 mm 3 mps 758 mmHg 93%
Show more